Flag for Norway Weather past 2 weeks in Grimstad, Norway

Now
35 °F

Chilly.


Feels Like: 31 °F
Forecast: 31 / 42 °F
Wind: 5 mph from North

Location: Torungen Fyr

Current Time: Mar 27, 2015 at 4:01:28 AM

Latest Report: Mar 27, 2015 at 3:00 AM


Visibility: N/A

Pressure: 29.75 "Hg

Humidity: 97%

Dew point: 34 °F

Location of GrimstadLocation

Historic Weather in Grimstad — Graph

°F

Grimstad temperature yesterday

Maximum temperature yesterday: 38 °F (at 1:00 PM)
Minimum temperature yesterday: 33 °F (at 6:00 AM)
Average temperature yesterday: 35 °F

Past Weeks' High & Low Weather Summary

 TemperatureHumidityPressure
High45 °F (Mar 24, 1:00 PM)100% (Mar 26, 12:00 PM)30.79 "Hg (Mar 26, 12:00 PM)
Low31 °F (Mar 22, 12:00 AM)46% (Mar 21, 8:00 PM)29.59 "Hg (Mar 26, 11:00 AM)
Average39 °F84%30.31 "Hg
* Reported Mar 12 2:00 AM — Mar 27 2:00 AM, Grimstad, Weather by CustomWeather, © 2015

Note: Actual official high and low records may vary slightly from our data, if they occured in-between our weather recording intervals... More about our weather records

Advertising

Grimstad weather history for previous 24 hours

 ConditionsComfort  
Time TempWeatherWind HumidityBarometerVisibility
2:00 AM
Fri, Mar 27
35 °FChilly.3 mph97%29.75 "HgN/A
1:00 AM35 °FChilly.3 mph97%29.74 "HgN/A
12:00 AM35 °FChilly.5 mph97%29.73 "HgN/A
11:00 PM
Thu, Mar 26
35 °FChilly.5 mph98%29.72 "HgN/A
9:00 PM35 °FChilly.5 mph98%29.69 "HgN/A
8:00 PM35 °FChilly.5 mph98%29.68 "HgN/A
7:00 PM35 °FChilly.5 mph99%29.67 "HgN/A
6:00 PM35 °FChilly.6 mph99%29.64 "HgN/A
5:00 PM35 °FChilly.6 mph100%29.63 "HgN/A
4:00 PM35 °FChilly.6 mph99%29.62 "HgN/A
3:00 PM35 °FChilly.6 mph99%29.62 "HgN/A
2:00 PM35 °FChilly.5 mph99%29.62 "HgN/A
1:00 PM38 °FChilly.7 mph100%29.61 "HgN/A
12:00 PM37 °FChilly.7 mph100%29.61 "HgN/A
11:00 AM35 °FChilly.15 mph99%29.59 "HgN/A
6:00 AM33 °FChilly.24 mph99%29.69 "HgN/A
5:00 AM33 °FChilly.21 mph99%29.72 "HgN/A
Weather by CustomWeather, © 2015

See weather overviewHow to use our weather pages